METEOR 2-1 DEB

Satellite information

Favourite Embed

Satellite Type and Status

DEBRISIN ORBIT

Key statistics

Satellite METEOR 2-1 DEB at a glance.

Uptime

18313

Days in orbit

Revolutions

≈ 14.5

Per day

Orbit

LEO

Low Earth Orbit

Inclination

81.2

Latest

Satellite identification and parameters

Extended collection of information and parameters for METEOR 2-1 DEB.

Object identification

Identified? True

Debris? True

Object name: METEOR 2-1 DEB

International designator: 1975-064E

Object number (NORAD): 38532

Object ID (CCSDS): 38532

Country: COMMONWEALTH OF INDEPENDENT STATES (CIS)

Current information (Y/N): Y

RCS size: SMALL

Orbital parameters

Period: 99.39 minutes

Inclination: 81.2241 deg

SMA: 7107.593 km

Apoapsis: 736.182 km

Periapsis: 722.734 km

RAAN: 139.8938 deg

Eccentricy: 0.000946

Argument of periapsis: 189.4837 deg

Mean anomaly: 170.6178 deg

Mean motion: 14.48835084 rev/day

Mean motion (dot): 0.00017807 rev/day2

B* drag term: 0.004698 1/REarth

Two-line elements (TLE)

Creation date: April 9, 2025, 5:26 p.m.

Reference frame: TEME

Reference center: EARTH

Epoch: Oct. 14, 2024, 7:05 a.m. UTC

TLE line 0: 0 METEOR 2-1 DEB

TLE line 1: 1 38532U 75064E 24288.29565219 .00017807 00000-0 46980-2 0 9998

TLE line 2: 2 38532 81.2241 139.8938 0009460 189.4837 170.6178 14.48835084822794

Live tracking on map

Real-time ground track for satellite METEOR 2-1 DEB.

In-orbit conjunctions

A list of the most updated potential collisions computed for object METEOR 2-1 DEB.

Target Orbit TCA Probability of collision Miss distance Type
FENGYUN 1C DEB SSO 2024-09-26 13:20:53 0.0005184217 229.0 (m) DEBRIS
FENGYUN 1C DEB SSO 2024-09-09 14:36:33 0.0001190418 73.0 (m) DEBRIS

Associated space launch

Second generation soviet meteorological satellite

METEOR 2-1 DEB was lifted into orbit during the mission ‘Vostok 8A92M | Meteor-2 1’, on board a Vostok 8A92M space rocket.

The launch took place on July 11, 1975, 4:15 a.m. from 41/1.

For more information about the launch, click the button.

Launch to space Vostok 8A92M | Meteor-2 1
Vostok 8A92M | Meteor-2 1

Agency: N/A

Status: Launch Successful

Launch date: July 11, 1975, 4:15 a.m. UTC

Rocket: Vostok 8A92M

Launch pad: 41/1

Location: Plesetsk Cosmodrome, Russian Federation

...

Latest news about this satellite

There are no fresh news available about this satellite. Check back as we update our databases every day.


Newsletter sign-up

Weekly statistics, charts and insights to help you stay on top of the space industry.